Location: Gallinara
(44.0333°N, 8.2333°E)
Time: 01:30:55
(UTC+00:00)

COSMOS 2428 - Pass Details

Date: 25 September 2020
Orbit: 844 x 859 km, 70.9° (Epoch: 29 October)

Event Time Altitude Azimuth Distance (km) Brightness Sun altitude
Rises 03:39:05 0° 176° (S) 3,401 5.7 -18.4°
Reaches altitude 10° 03:41:42 10° 168° (SSE) 2,472 5.1 -17.9°
Maximum altitude 03:46:45 34° 105° (ESE) 1,376 4.4 -17.0°
Drops below altitude 10° 03:51:51 10° 42° (NE) 2,496 6.0 -16.2°
Sets 03:54:30 0° 34° (NNE) 3,438 6.6 -15.7°
